Voltar ao catálogo

STARLINK-32020

AtivoComunicaçõesVLEO
NORAD 60201·PAYLOAD·🇺🇸 United States

Lançado Jul 3, 2024 de Cape Canaveral Space Force Station

Loading…

Próximas Passagens (próximas 24 horas)

TLE

AtualizadoSource: CelesTrak SupGP

Época: Sep 15, 2026, 02:04 UTC

1 60201C 24124U   26258.08659722 -.00039790  00000+0 -12795-2 0  2587
2 60201  53.1566 161.3775 0001232  92.3201 236.5531 15.31723465    15

Acompanhe STARLINK-32020 em tempo real com AllMySat

Download on the App Store